Year,Month,Day,Hour,Minute,Value (Times are PST for temperature in C)
2016,04,19,00,00,14.90
2016,04,19,00,01,14.90
2016,04,19,00,02,14.90
2016,04,19,00,03,14.90
2016,04,19,00,04,14.90
2016,04,19,00,05,14.90
2016,04,19,00,06,14.90
2016,04,19,00,07,14.90
2016,04,19,00,08,14.90
2016,04,19,00,09,14.90
2016,04,19,00,10,14.90
2016,04,19,00,11,14.90
2016,04,19,00,12,14.90
2016,04,19,00,13,14.90
2016,04,19,00,14,14.90
2016,04,19,00,15,14.80
2016,04,19,00,16,14.80
2016,04,19,00,17,14.80
2016,04,19,00,18,14.80
2016,04,19,00,19,14.80
2016,04,19,00,20,14.80
2016,04,19,00,21,14.70
2016,04,19,00,22,14.70
2016,04,19,00,23,14.70
2016,04,19,00,24,14.60
2016,04,19,00,25,14.60
2016,04,19,00,26,14.60
2016,04,19,00,27,14.60
2016,04,19,00,28,14.60
2016,04,19,00,29,14.60
2016,04,19,00,30,14.50
2016,04,19,00,31,14.50
2016,04,19,00,32,14.40
2016,04,19,00,33,14.40
2016,04,19,00,34,14.40
2016,04,19,00,35,14.30
2016,04,19,00,36,14.30
2016,04,19,00,37,14.30
2016,04,19,00,38,14.30
2016,04,19,00,39,14.20
2016,04,19,00,40,14.20
2016,04,19,00,41,14.20
2016,04,19,00,42,14.20
2016,04,19,00,43,14.20
2016,04,19,00,44,14.20
2016,04,19,00,45,14.20
2016,04,19,00,46,14.20
2016,04,19,00,47,14.20
2016,04,19,00,48,14.20
2016,04,19,00,49,14.30
2016,04,19,00,50,14.30
2016,04,19,00,51,14.30
2016,04,19,00,52,14.30
2016,04,19,00,53,14.30
2016,04,19,00,54,14.30
2016,04,19,00,55,14.30
2016,04,19,00,56,14.30
2016,04,19,00,57,14.30
2016,04,19,00,58,14.30
2016,04,19,00,59,14.30
2016,04,19,01,00,14.30
2016,04,19,01,01,14.30
2016,04,19,01,02,14.30
2016,04,19,01,03,14.30
2016,04,19,01,04,14.30
2016,04,19,01,05,14.30
2016,04,19,01,06,14.30
2016,04,19,01,07,14.30
2016,04,19,01,08,14.30
2016,04,19,01,09,14.20
2016,04,19,01,10,14.20
2016,04,19,01,11,14.20
2016,04,19,01,12,14.10
2016,04,19,01,13,14.10
2016,04,19,01,14,14.10
2016,04,19,01,15,14.00
2016,04,19,01,16,14.00
2016,04,19,01,17,13.90
2016,04,19,01,18,13.90
2016,04,19,01,19,13.80
2016,04,19,01,20,13.80
2016,04,19,01,21,13.80
2016,04,19,01,22,13.80
2016,04,19,01,23,13.70
2016,04,19,01,24,13.70
2016,04,19,01,25,13.70
2016,04,19,01,26,13.60
2016,04,19,01,27,13.60
2016,04,19,01,28,13.50
2016,04,19,01,29,13.50
2016,04,19,01,30,13.50
2016,04,19,01,31,13.40
2016,04,19,01,32,13.40
2016,04,19,01,33,13.30
2016,04,19,01,34,13.30
2016,04,19,01,35,13.30
2016,04,19,01,36,13.20
2016,04,19,01,37,13.20
2016,04,19,01,38,13.10
2016,04,19,01,39,13.10
2016,04,19,01,40,13.00
2016,04,19,01,41,12.90
2016,04,19,01,42,12.90
2016,04,19,01,43,12.80
2016,04,19,01,44,12.80
2016,04,19,01,45,12.80
2016,04,19,01,46,12.70
2016,04,19,01,47,12.70
2016,04,19,01,48,12.70
2016,04,19,01,49,12.60
2016,04,19,01,50,12.60
2016,04,19,01,51,12.60
2016,04,19,01,52,12.50
2016,04,19,01,53,12.50
2016,04,19,01,54,12.40
2016,04,19,01,55,12.40
2016,04,19,01,56,12.40
2016,04,19,01,57,12.30
2016,04,19,01,58,12.30
2016,04,19,01,59,12.30
2016,04,19,02,00,12.30
2016,04,19,02,01,12.30
2016,04,19,02,02,12.20
2016,04,19,02,03,12.20
2016,04,19,02,04,12.20
2016,04,19,02,05,12.20
2016,04,19,02,06,12.20
2016,04,19,02,07,12.20
2016,04,19,02,08,12.10
2016,04,19,02,09,12.10
2016,04,19,02,10,12.10
2016,04,19,02,11,12.10
2016,04,19,02,12,12.10
2016,04,19,02,13,12.00
2016,04,19,02,14,12.00
2016,04,19,02,15,12.00
2016,04,19,02,16,11.90
2016,04,19,02,17,11.90
2016,04,19,02,18,11.90
2016,04,19,02,19,11.90
2016,04,19,02,20,11.80
2016,04,19,02,21,11.80
2016,04,19,02,22,11.80
2016,04,19,02,23,11.80
2016,04,19,02,24,11.80
2016,04,19,02,25,11.80
2016,04,19,02,26,11.80
2016,04,19,02,27,11.80
2016,04,19,02,28,11.80
2016,04,19,02,29,11.90
2016,04,19,02,30,11.90
2016,04,19,02,31,11.90
2016,04,19,02,32,11.90
2016,04,19,02,33,11.90
2016,04,19,02,34,11.90
2016,04,19,02,35,11.90
2016,04,19,02,36,11.90
2016,04,19,02,37,11.90
2016,04,19,02,38,11.90
2016,04,19,02,39,11.90
2016,04,19,02,40,11.90
2016,04,19,02,41,11.90
2016,04,19,02,42,11.90
2016,04,19,02,43,11.90
2016,04,19,02,44,11.90
2016,04,19,02,45,11.90
2016,04,19,02,46,11.90
2016,04,19,02,47,11.90
2016,04,19,02,48,11.90
2016,04,19,02,49,11.80
2016,04,19,02,50,11.80
2016,04,19,02,51,11.80
2016,04,19,02,52,11.80
2016,04,19,02,53,11.80
2016,04,19,02,54,11.80
2016,04,19,02,55,11.80
2016,04,19,02,56,11.80
2016,04,19,02,57,11.80
2016,04,19,02,58,11.80
2016,04,19,02,59,11.70
2016,04,19,03,00,11.70
2016,04,19,03,01,11.70
2016,04,19,03,02,11.70
2016,04,19,03,03,11.70
2016,04,19,03,04,11.70
2016,04,19,03,05,11.70
2016,04,19,03,06,11.70
2016,04,19,03,07,11.70
2016,04,19,03,08,11.70
2016,04,19,03,09,11.70
2016,04,19,03,10,11.70
2016,04,19,03,11,11.70
2016,04,19,03,12,11.70
2016,04,19,03,13,11.70
2016,04,19,03,14,11.70
2016,04,19,03,15,11.80
2016,04,19,03,16,11.80
2016,04,19,03,17,11.80
2016,04,19,03,18,11.80
2016,04,19,03,19,11.80
2016,04,19,03,20,11.80
2016,04,19,03,21,11.80
2016,04,19,03,22,11.80
2016,04,19,03,23,11.70
2016,04,19,03,24,11.70
2016,04,19,03,25,11.70
2016,04,19,03,26,11.70
2016,04,19,03,27,11.70
2016,04,19,03,28,11.70
2016,04,19,03,29,11.60
2016,04,19,03,30,11.70
2016,04,19,03,31,11.70
2016,04,19,03,32,11.70
2016,04,19,03,33,11.70
2016,04,19,03,34,11.70
2016,04,19,03,35,11.70
2016,04,19,03,36,11.80
2016,04,19,03,37,11.80
2016,04,19,03,38,11.80
2016,04,19,03,39,11.80
2016,04,19,03,40,11.80
2016,04,19,03,41,11.80
2016,04,19,03,42,11.90
2016,04,19,03,43,11.90
2016,04,19,03,44,11.90
2016,04,19,03,45,12.00
2016,04,19,03,46,12.00
2016,04,19,03,47,12.10
2016,04,19,03,48,12.20
2016,04,19,03,49,12.30
2016,04,19,03,50,12.40
2016,04,19,03,51,12.50
2016,04,19,03,52,12.60
2016,04,19,03,53,12.70
2016,04,19,03,54,12.70
2016,04,19,03,55,12.80
2016,04,19,03,56,12.80
2016,04,19,03,57,12.80
2016,04,19,03,58,12.80
2016,04,19,03,59,12.80
2016,04,19,04,00,12.90
2016,04,19,04,01,12.90
2016,04,19,04,02,13.00
2016,04,19,04,03,13.00
2016,04,19,04,04,13.00
2016,04,19,04,05,13.00
2016,04,19,04,06,13.00
2016,04,19,04,07,13.00
2016,04,19,04,08,13.00
2016,04,19,04,09,13.00
2016,04,19,04,10,13.10
2016,04,19,04,11,13.10
2016,04,19,04,12,13.10
2016,04,19,04,13,13.10
2016,04,19,04,14,13.10
2016,04,19,04,15,13.10
2016,04,19,04,16,13.20
2016,04,19,04,17,13.20
2016,04,19,04,18,13.20
2016,04,19,04,19,13.20
2016,04,19,04,20,13.20
2016,04,19,04,21,13.20
2016,04,19,04,22,13.20
2016,04,19,04,23,13.10
2016,04,19,04,24,13.10
2016,04,19,04,25,13.00
2016,04,19,04,26,13.00
2016,04,19,04,27,12.90
2016,04,19,04,28,12.90
2016,04,19,04,29,12.90
2016,04,19,04,30,12.90
2016,04,19,04,31,12.90
2016,04,19,04,32,12.90
2016,04,19,04,33,12.90
2016,04,19,04,34,12.90
2016,04,19,04,35,12.90
2016,04,19,04,36,12.90
2016,04,19,04,37,12.90
2016,04,19,04,38,12.90
2016,04,19,04,39,12.90
2016,04,19,04,40,12.90
2016,04,19,04,41,12.80
2016,04,19,04,42,12.80
2016,04,19,04,43,12.80
2016,04,19,04,44,12.80
2016,04,19,04,45,12.80
2016,04,19,04,46,12.80
2016,04,19,04,47,12.80
2016,04,19,04,48,12.80
2016,04,19,04,49,12.80
2016,04,19,04,50,12.70
2016,04,19,04,51,12.70
2016,04,19,04,52,12.70
2016,04,19,04,53,12.70
2016,04,19,04,54,12.60
2016,04,19,04,55,12.60
2016,04,19,04,56,12.60
2016,04,19,04,57,12.60
2016,04,19,04,58,12.50
2016,04,19,04,59,12.50
2016,04,19,05,00,12.50
2016,04,19,05,01,12.50
2016,04,19,05,02,12.40
2016,04,19,05,03,12.40
2016,04,19,05,04,12.40
2016,04,19,05,05,12.40
2016,04,19,05,06,12.40
2016,04,19,05,07,12.40
2016,04,19,05,08,12.40
2016,04,19,05,09,12.40
2016,04,19,05,10,12.40
2016,04,19,05,11,12.40
2016,04,19,05,12,12.40
2016,04,19,05,13,12.30
2016,04,19,05,14,12.30
2016,04,19,05,15,12.30
2016,04,19,05,16,12.30
2016,04,19,05,17,12.30
2016,04,19,05,18,12.30
2016,04,19,05,19,12.30
2016,04,19,05,20,12.30
2016,04,19,05,21,12.40
2016,04,19,05,22,12.40
2016,04,19,05,23,12.40
2016,04,19,05,24,12.40
2016,04,19,05,25,12.40
2016,04,19,05,26,12.40
2016,04,19,05,27,12.40
2016,04,19,05,28,12.40
2016,04,19,05,29,12.40
2016,04,19,05,30,12.40
2016,04,19,05,31,12.40
2016,04,19,05,32,12.40
2016,04,19,05,33,12.50
2016,04,19,05,34,12.50
2016,04,19,05,35,12.60
2016,04,19,05,36,12.60
2016,04,19,05,37,12.60
2016,04,19,05,38,12.60
2016,04,19,05,39,12.60
2016,04,19,05,40,12.60
2016,04,19,05,41,12.60
2016,04,19,05,42,12.70
2016,04,19,05,43,12.70
2016,04,19,05,44,12.70
2016,04,19,05,45,12.70
2016,04,19,05,46,12.70
2016,04,19,05,47,12.70
2016,04,19,05,48,12.70
2016,04,19,05,49,12.70
2016,04,19,05,50,12.70
2016,04,19,05,51,12.70
2016,04,19,05,52,12.70
2016,04,19,05,53,12.70
2016,04,19,05,54,12.70
2016,04,19,05,55,12.70
2016,04,19,05,56,12.70
2016,04,19,05,57,12.70
2016,04,19,05,58,12.70
2016,04,19,05,59,12.70
2016,04,19,06,00,12.70
2016,04,19,06,01,12.80
2016,04,19,06,02,12.80
2016,04,19,06,03,12.80
2016,04,19,06,04,12.80
2016,04,19,06,05,12.80
2016,04,19,06,06,12.90
2016,04,19,06,07,12.90
2016,04,19,06,08,12.90
2016,04,19,06,09,12.90
2016,04,19,06,10,13.00
2016,04,19,06,11,13.00
2016,04,19,06,12,13.00
2016,04,19,06,13,13.10
2016,04,19,06,14,13.10
2016,04,19,06,15,13.10
2016,04,19,06,16,13.10
2016,04,19,06,17,13.20
2016,04,19,06,18,13.20
2016,04,19,06,19,13.20
2016,04,19,06,20,13.20
2016,04,19,06,21,13.20
2016,04,19,06,22,13.20
2016,04,19,06,23,13.20
2016,04,19,06,24,13.20
2016,04,19,06,25,13.30
2016,04,19,06,26,13.20
2016,04,19,06,27,13.30
2016,04,19,06,28,13.30
2016,04,19,06,29,13.30
2016,04,19,06,30,13.30
2016,04,19,06,31,13.30
2016,04,19,06,32,13.20
2016,04,19,06,33,13.20
2016,04,19,06,34,13.20
2016,04,19,06,35,13.20
2016,04,19,06,36,13.20
2016,04,19,06,37,13.30
2016,04,19,06,38,13.20
2016,04,19,06,39,13.30
2016,04,19,06,40,13.30
2016,04,19,06,41,13.30
2016,04,19,06,42,13.30
2016,04,19,06,43,13.30
2016,04,19,06,44,13.30
2016,04,19,06,45,13.30
2016,04,19,06,46,13.30
2016,04,19,06,47,13.30
2016,04,19,06,48,13.30
2016,04,19,06,49,13.30
2016,04,19,06,50,13.30
2016,04,19,06,51,13.30
2016,04,19,06,52,13.30
2016,04,19,06,53,13.40
2016,04,19,06,54,13.40
2016,04,19,06,55,13.40
2016,04,19,06,56,13.40
2016,04,19,06,57,13.40
2016,04,19,06,58,13.40
2016,04,19,06,59,13.40
2016,04,19,07,00,13.40
2016,04,19,07,01,13.40
2016,04,19,07,02,13.40
2016,04,19,07,03,13.40
2016,04,19,07,04,13.40
2016,04,19,07,05,13.40
2016,04,19,07,06,13.40
2016,04,19,07,07,13.40
2016,04,19,07,08,13.40
2016,04,19,07,09,13.40
2016,04,19,07,10,13.40
2016,04,19,07,11,13.50
2016,04,19,07,12,13.50
2016,04,19,07,13,13.50
2016,04,19,07,14,13.50
2016,04,19,07,15,13.50
2016,04,19,07,16,13.50
2016,04,19,07,17,13.50
2016,04,19,07,18,13.40
2016,04,19,07,19,13.40
2016,04,19,07,20,13.40
2016,04,19,07,21,13.40
2016,04,19,07,22,13.40
2016,04,19,07,23,13.50
2016,04,19,07,24,13.50
2016,04,19,07,25,13.50
2016,04,19,07,26,13.50
2016,04,19,07,27,13.50
2016,04,19,07,28,13.50
2016,04,19,07,29,13.50
2016,04,19,07,30,13.60
2016,04,19,07,31,13.60
2016,04,19,07,32,13.60
2016,04,19,07,33,13.60
2016,04,19,07,34,13.60
2016,04,19,07,35,13.60
2016,04,19,07,36,13.60
2016,04,19,07,37,13.60
2016,04,19,07,38,13.60
2016,04,19,07,39,13.70
2016,04,19,07,40,13.70
2016,04,19,07,41,13.70
2016,04,19,07,42,13.70
2016,04,19,07,43,13.80
2016,04,19,07,44,13.80
2016,04,19,07,45,13.80
2016,04,19,07,46,13.80
2016,04,19,07,47,13.80
2016,04,19,07,48,13.90
2016,04,19,07,49,13.90
2016,04,19,07,50,13.90
2016,04,19,07,51,13.90
2016,04,19,07,52,13.90
2016,04,19,07,53,14.00
2016,04,19,07,54,14.00
2016,04,19,07,55,14.00
2016,04,19,07,56,14.10
2016,04,19,07,57,14.10
2016,04,19,07,58,14.10
2016,04,19,07,59,14.10
2016,04,19,08,00,14.20
2016,04,19,08,01,14.20
2016,04,19,08,02,14.20
2016,04,19,08,03,14.30
2016,04,19,08,04,14.30
2016,04,19,08,05,14.40
2016,04,19,08,06,14.40
2016,04,19,08,07,14.50
2016,04,19,08,08,14.50
2016,04,19,08,09,14.60
2016,04,19,08,10,14.60
2016,04,19,08,11,14.70
2016,04,19,08,12,14.70
2016,04,19,08,13,14.80
2016,04,19,08,14,14.80
2016,04,19,08,15,14.80
2016,04,19,08,16,14.80
2016,04,19,08,17,14.90
2016,04,19,08,18,14.90
2016,04,19,08,19,14.90
2016,04,19,08,20,14.90
2016,04,19,08,21,14.90
2016,04,19,08,22,15.00
2016,04,19,08,23,15.00
2016,04,19,08,24,15.00
2016,04,19,08,25,15.10
2016,04,19,08,26,15.10
2016,04,19,08,27,15.10
2016,04,19,08,28,15.10
2016,04,19,08,29,15.10
2016,04,19,08,30,15.10
2016,04,19,08,31,15.20
2016,04,19,08,32,15.20
2016,04,19,08,33,15.20
2016,04,19,08,34,15.30
2016,04,19,08,35,15.30
2016,04,19,08,36,15.40
2016,04,19,08,37,15.40
2016,04,19,08,38,15.50
2016,04,19,08,39,15.50
2016,04,19,08,40,15.60
2016,04,19,08,41,15.60
2016,04,19,08,42,15.70
2016,04,19,08,43,15.70
2016,04,19,08,44,15.70
2016,04,19,08,45,15.80
2016,04,19,08,46,15.80
2016,04,19,08,47,15.90
2016,04,19,08,48,15.90
2016,04,19,08,49,15.90
2016,04,19,08,50,16.00
2016,04,19,08,51,16.00
2016,04,19,08,52,16.10
2016,04,19,08,53,16.10
2016,04,19,08,54,16.20
2016,04,19,08,55,16.30
2016,04,19,08,56,16.30
2016,04,19,08,57,16.40
2016,04,19,08,58,16.40
2016,04,19,08,59,16.40
2016,04,19,09,00,16.50
2016,04,19,09,01,16.50
2016,04,19,09,02,16.60
2016,04,19,09,03,16.60
2016,04,19,09,04,16.70
2016,04,19,09,05,16.70
2016,04,19,09,06,16.70
2016,04,19,09,07,16.70
2016,04,19,09,08,16.70
2016,04,19,09,09,16.80
2016,04,19,09,10,16.80
2016,04,19,09,11,16.90
2016,04,19,09,12,16.90
2016,04,19,09,13,16.90
2016,04,19,09,14,16.90
2016,04,19,09,15,16.90
2016,04,19,09,16,16.90
2016,04,19,09,17,17.00
2016,04,19,09,18,17.00
2016,04,19,09,19,17.10
2016,04,19,09,20,17.20
2016,04,19,09,21,17.20
2016,04,19,09,22,17.30
2016,04,19,09,23,17.30
2016,04,19,09,24,17.40
2016,04,19,09,25,17.40
2016,04,19,09,26,17.50
2016,04,19,09,27,17.60
2016,04,19,09,28,17.60
2016,04,19,09,29,17.60
2016,04,19,09,30,17.70
2016,04,19,09,31,17.70
2016,04,19,09,32,17.70
2016,04,19,09,33,17.70
2016,04,19,09,34,17.80
2016,04,19,09,35,17.80
2016,04,19,09,36,17.90
2016,04,19,09,37,17.90
2016,04,19,09,38,17.90
2016,04,19,09,39,17.90
2016,04,19,09,40,17.90
2016,04,19,09,41,17.90
2016,04,19,09,42,17.90
2016,04,19,09,43,18.00
2016,04,19,09,44,18.00
2016,04,19,09,45,18.00
2016,04,19,09,46,18.00
2016,04,19,09,47,18.00
2016,04,19,09,48,18.10
2016,04,19,09,49,18.10
2016,04,19,09,50,18.10
2016,04,19,09,51,18.20
2016,04,19,09,52,18.20
2016,04,19,09,53,18.10
2016,04,19,09,54,18.20
2016,04,19,09,55,18.20
2016,04,19,09,56,18.30
2016,04,19,09,57,18.30
2016,04,19,09,58,18.30
2016,04,19,09,59,18.30
2016,04,19,10,00,18.20
2016,04,19,10,01,18.30
2016,04,19,10,02,18.30
2016,04,19,10,03,18.30
2016,04,19,10,04,18.30
2016,04,19,10,05,18.30
2016,04,19,10,06,18.40
2016,04,19,10,07,18.40
2016,04,19,10,08,18.40
2016,04,19,10,09,18.30
2016,04,19,10,10,18.30
2016,04,19,10,11,18.30
2016,04,19,10,12,18.30
2016,04,19,10,13,18.30
2016,04,19,10,14,18.30
2016,04,19,10,15,18.30
2016,04,19,10,16,18.30
2016,04,19,10,17,18.30
2016,04,19,10,18,18.30
2016,04,19,10,19,18.30
2016,04,19,10,20,18.40
2016,04,19,10,21,18.40
2016,04,19,10,22,18.40
2016,04,19,10,23,18.40
2016,04,19,10,24,18.40
2016,04,19,10,25,18.40
2016,04,19,10,26,18.40
2016,04,19,10,27,18.50
2016,04,19,10,28,18.50
2016,04,19,10,29,18.50
2016,04,19,10,30,18.60
2016,04,19,10,31,18.70
2016,04,19,10,32,18.70
2016,04,19,10,33,18.70
2016,04,19,10,34,18.70
2016,04,19,10,35,18.60
2016,04,19,10,36,18.50
2016,04,19,10,37,18.40
2016,04,19,10,38,18.40
2016,04,19,10,39,18.40
2016,04,19,10,40,18.40
2016,04,19,10,41,18.50
2016,04,19,10,42,18.60
2016,04,19,10,43,18.60
2016,04,19,10,44,18.50
2016,04,19,10,45,18.50
2016,04,19,10,46,18.50
2016,04,19,10,47,18.60
2016,04,19,10,48,18.60
2016,04,19,10,49,18.60
2016,04,19,10,50,18.50
2016,04,19,10,51,18.50
2016,04,19,10,52,18.40
2016,04,19,10,53,18.40
2016,04,19,10,54,18.50
2016,04,19,10,55,18.50
2016,04,19,10,56,18.50
2016,04,19,10,57,18.60
2016,04,19,10,58,18.70
2016,04,19,10,59,18.80
2016,04,19,11,00,18.90
2016,04,19,11,01,19.00
2016,04,19,11,02,19.00
2016,04,19,11,03,19.10
2016,04,19,11,04,19.20
2016,04,19,11,05,19.20
2016,04,19,11,06,19.30
2016,04,19,11,07,19.40
2016,04,19,11,08,19.40
2016,04,19,11,09,19.40
2016,04,19,11,10,19.40
2016,04,19,11,11,19.50
2016,04,19,11,12,19.60
2016,04,19,11,13,19.50
2016,04,19,11,14,19.50
2016,04,19,11,15,19.40
2016,04,19,11,16,19.40
2016,04,19,11,17,19.30
2016,04,19,11,18,19.30
2016,04,19,11,19,19.20
2016,04,19,11,20,19.20
2016,04,19,11,21,19.20
2016,04,19,11,22,19.20
2016,04,19,11,23,19.30
2016,04,19,11,24,19.20
2016,04,19,11,25,19.20
2016,04,19,11,26,19.30
2016,04,19,11,27,19.30
2016,04,19,11,28,19.30
2016,04,19,11,29,19.40
2016,04,19,11,30,19.40
2016,04,19,11,31,19.40
2016,04,19,11,32,19.30
2016,04,19,11,33,19.30
2016,04,19,11,34,19.30
2016,04,19,11,35,19.30
2016,04,19,11,36,19.40
2016,04,19,11,37,19.50
2016,04,19,11,38,19.50
2016,04,19,11,39,19.50
2016,04,19,11,40,19.50
2016,04,19,11,41,19.50
2016,04,19,11,42,19.60
2016,04,19,11,43,19.70
2016,04,19,11,44,19.70
2016,04,19,11,45,19.70
2016,04,19,11,46,19.80
2016,04,19,11,47,19.90
2016,04,19,11,48,20.00
2016,04,19,11,49,20.00
2016,04,19,11,50,20.10
2016,04,19,11,51,20.00
2016,04,19,11,52,20.00
2016,04,19,11,53,20.00
2016,04,19,11,54,20.00
2016,04,19,11,55,20.00
2016,04,19,11,56,20.00
2016,04,19,11,57,20.10
2016,04,19,11,58,20.10
2016,04,19,11,59,20.20
2016,04,19,12,00,20.20
2016,04,19,12,01,20.30
2016,04,19,12,02,20.30
2016,04,19,12,03,20.30
2016,04,19,12,04,20.30
2016,04,19,12,05,20.30
2016,04,19,12,06,20.30
2016,04,19,12,07,20.30
2016,04,19,12,08,20.40
2016,04,19,12,09,20.40
2016,04,19,12,10,20.50
2016,04,19,12,11,20.50
2016,04,19,12,12,20.50
2016,04,19,12,13,20.40
2016,04,19,12,14,20.30
2016,04,19,12,15,20.30
2016,04,19,12,16,20.10
2016,04,19,12,17,20.00
2016,04,19,12,18,20.00
2016,04,19,12,19,20.00
2016,04,19,12,20,20.00
2016,04,19,12,21,20.00
2016,04,19,12,22,20.00
2016,04,19,12,23,20.00
2016,04,19,12,24,19.90
2016,04,19,12,25,19.80
2016,04,19,12,26,19.80
2016,04,19,12,27,19.80
2016,04,19,12,28,19.80
2016,04,19,12,29,19.80
2016,04,19,12,30,19.80
2016,04,19,12,31,19.90
2016,04,19,12,32,20.00
2016,04,19,12,33,20.10
2016,04,19,12,34,20.20
2016,04,19,12,35,20.20
2016,04,19,12,36,20.20
2016,04,19,12,37,20.20
2016,04,19,12,38,20.30
2016,04,19,12,39,20.40
2016,04,19,12,40,20.40
2016,04,19,12,41,20.50
2016,04,19,12,42,20.60
2016,04,19,12,43,20.60
2016,04,19,12,44,20.70
2016,04,19,12,45,20.80
2016,04,19,12,46,20.80
2016,04,19,12,47,20.80
2016,04,19,12,48,20.70
2016,04,19,12,49,20.70
2016,04,19,12,50,20.70
2016,04,19,12,51,20.80
2016,04,19,12,52,20.70
2016,04,19,12,53,20.70
2016,04,19,12,54,20.60
2016,04,19,12,55,20.70
2016,04,19,12,56,20.70
2016,04,19,12,57,20.60
2016,04,19,12,58,20.50
2016,04,19,12,59,20.60
2016,04,19,13,00,20.60
2016,04,19,13,01,20.50
2016,04,19,13,02,20.50
2016,04,19,13,03,20.50
2016,04,19,13,04,20.50
2016,04,19,13,05,20.60
2016,04,19,13,06,20.60
2016,04,19,13,07,20.70
2016,04,19,13,08,20.70
2016,04,19,13,09,20.70
2016,04,19,13,10,20.60
2016,04,19,13,11,20.60
2016,04,19,13,12,20.60
2016,04,19,13,13,20.80
2016,04,19,13,14,20.80
2016,04,19,13,15,20.80
2016,04,19,13,16,20.80
2016,04,19,13,17,20.80
2016,04,19,13,18,20.90
2016,04,19,13,19,20.90
2016,04,19,13,20,21.10
2016,04,19,13,21,21.20
2016,04,19,13,22,21.30
2016,04,19,13,23,21.30
2016,04,19,13,24,21.20
2016,04,19,13,25,21.20
2016,04,19,13,26,21.20
2016,04,19,13,27,21.30
2016,04,19,13,28,21.30
2016,04,19,13,29,21.30
2016,04,19,13,30,21.30
2016,04,19,13,31,21.20
2016,04,19,13,32,21.20
2016,04,19,13,33,21.20
2016,04,19,13,34,21.20
2016,04,19,13,35,21.20
2016,04,19,13,36,21.20
2016,04,19,13,37,21.20
2016,04,19,13,38,21.10
2016,04,19,13,39,21.10
2016,04,19,13,40,21.10
2016,04,19,13,41,21.10
2016,04,19,13,42,21.30
2016,04,19,13,43,21.30
2016,04,19,13,44,21.30
2016,04,19,13,45,21.30
2016,04,19,13,46,21.30
2016,04,19,13,47,21.40
2016,04,19,13,48,21.50
2016,04,19,13,49,21.50
2016,04,19,13,50,21.50
2016,04,19,13,51,21.50
2016,04,19,13,52,21.50
2016,04,19,13,53,21.50
2016,04,19,13,54,21.60
2016,04,19,13,55,21.60
2016,04,19,13,56,21.70
2016,04,19,13,57,21.70
2016,04,19,13,58,21.70
2016,04,19,13,59,21.80
2016,04,19,14,00,21.80
2016,04,19,14,01,21.90
2016,04,19,14,02,22.10
2016,04,19,14,03,22.10
2016,04,19,14,04,22.00
2016,04,19,14,05,21.90
2016,04,19,14,06,22.00
2016,04,19,14,07,22.00
2016,04,19,14,08,22.10
2016,04,19,14,09,22.10
2016,04,19,14,10,22.10
2016,04,19,14,11,22.20
2016,04,19,14,12,22.10
2016,04,19,14,13,22.10
2016,04,19,14,14,22.10
2016,04,19,14,15,22.10
2016,04,19,14,16,22.10
2016,04,19,14,17,22.00
2016,04,19,14,18,21.90
2016,04,19,14,19,21.80
2016,04,19,14,20,21.60
2016,04,19,14,21,21.60
2016,04,19,14,22,21.60
2016,04,19,14,23,21.60
2016,04,19,14,24,21.60
2016,04,19,14,25,21.70
2016,04,19,14,26,21.70
2016,04,19,14,27,21.80
2016,04,19,14,28,21.80
2016,04,19,14,29,21.80
2016,04,19,14,30,21.80
2016,04,19,14,31,21.80
2016,04,19,14,32,21.80
2016,04,19,14,33,21.80
2016,04,19,14,34,21.80
2016,04,19,14,35,21.80
2016,04,19,14,36,21.80
2016,04,19,14,37,21.80
2016,04,19,14,38,21.70
2016,04,19,14,39,21.80
2016,04,19,14,40,21.70
2016,04,19,14,41,21.70
2016,04,19,14,42,21.70
2016,04,19,14,43,21.70
2016,04,19,14,44,21.70
2016,04,19,14,45,21.70
2016,04,19,14,46,21.70
2016,04,19,14,47,21.70
2016,04,19,14,48,21.70
2016,04,19,14,49,21.70
2016,04,19,14,50,21.70
2016,04,19,14,51,21.80
2016,04,19,14,52,21.80
2016,04,19,14,53,21.80
2016,04,19,14,54,21.90
2016,04,19,14,55,21.90
2016,04,19,14,56,21.90
2016,04,19,14,57,22.00
2016,04,19,14,58,22.00
2016,04,19,14,59,22.00
2016,04,19,15,00,22.00
2016,04,19,15,01,21.90
2016,04,19,15,02,21.90
2016,04,19,15,03,21.90
2016,04,19,15,04,21.90
2016,04,19,15,05,21.90
2016,04,19,15,06,21.90
2016,04,19,15,07,21.90
2016,04,19,15,08,21.90
2016,04,19,15,09,21.80
2016,04,19,15,10,21.80
2016,04,19,15,11,21.80
2016,04,19,15,12,21.80
2016,04,19,15,13,21.80
2016,04,19,15,14,21.80
2016,04,19,15,15,21.80
2016,04,19,15,16,21.80
2016,04,19,15,17,21.80
2016,04,19,15,18,21.80
2016,04,19,15,19,21.80
2016,04,19,15,20,21.80
2016,04,19,15,21,21.80
2016,04,19,15,22,21.80
2016,04,19,15,23,22.00
2016,04,19,15,24,22.10
2016,04,19,15,25,22.20
2016,04,19,15,26,22.30
2016,04,19,15,27,22.30
2016,04,19,15,28,22.20
2016,04,19,15,29,22.20
2016,04,19,15,30,22.20
2016,04,19,15,31,22.20
2016,04,19,15,32,22.20
2016,04,19,15,33,22.20
2016,04,19,15,34,22.20
2016,04,19,15,35,22.20
2016,04,19,15,36,22.30
2016,04,19,15,37,22.30
2016,04,19,15,38,22.30
2016,04,19,15,39,22.30
2016,04,19,15,40,22.40
2016,04,19,15,41,22.40
2016,04,19,15,42,22.50
2016,04,19,15,43,22.50
2016,04,19,15,44,22.50
2016,04,19,15,45,22.50
2016,04,19,15,46,22.50
2016,04,19,15,47,22.50
2016,04,19,15,48,22.50
2016,04,19,15,49,22.50
2016,04,19,15,50,22.60
2016,04,19,15,51,22.60
2016,04,19,15,52,22.70
2016,04,19,15,53,22.70
2016,04,19,15,54,22.80
2016,04,19,15,55,22.90
2016,04,19,15,56,23.00
2016,04,19,15,57,23.10
2016,04,19,15,58,23.20
2016,04,19,15,59,23.20
2016,04,19,16,00,23.30
2016,04,19,16,01,23.40
2016,04,19,16,02,23.40
2016,04,19,16,03,23.50
2016,04,19,16,04,23.50
2016,04,19,16,05,23.50
2016,04,19,16,06,23.50
2016,04,19,16,07,23.60
2016,04,19,16,08,23.70
2016,04,19,16,09,23.70
2016,04,19,16,10,23.80
2016,04,19,16,11,23.80
2016,04,19,16,12,23.80
2016,04,19,16,13,23.80
2016,04,19,16,14,23.80
2016,04,19,16,15,23.80
2016,04,19,16,16,23.80
2016,04,19,16,17,23.70
2016,04,19,16,18,23.80
2016,04,19,16,19,23.80
2016,04,19,16,20,23.80
2016,04,19,16,21,23.90
2016,04,19,16,22,24.00
2016,04,19,16,23,24.00
2016,04,19,16,24,24.00
2016,04,19,16,25,24.00
2016,04,19,16,26,24.00
2016,04,19,16,27,23.90
2016,04,19,16,28,23.90
2016,04,19,16,29,23.80
2016,04,19,16,30,23.80
2016,04,19,16,31,23.70
2016,04,19,16,32,23.70
2016,04,19,16,33,23.70
2016,04,19,16,34,23.60
2016,04,19,16,35,23.60
2016,04,19,16,36,23.60
2016,04,19,16,37,23.50
2016,04,19,16,38,23.50
2016,04,19,16,39,23.50
2016,04,19,16,40,23.50
2016,04,19,16,41,23.50
2016,04,19,16,42,23.50
2016,04,19,16,43,23.50
2016,04,19,16,44,23.50
2016,04,19,16,45,23.60
2016,04,19,16,46,23.60
2016,04,19,16,47,23.60
2016,04,19,16,48,23.60
2016,04,19,16,49,23.60
2016,04,19,16,50,23.60
2016,04,19,16,51,23.60
2016,04,19,16,52,23.50
2016,04,19,16,53,23.60
2016,04,19,16,54,23.60
2016,04,19,16,55,23.60
2016,04,19,16,56,23.70
2016,04,19,16,57,23.70
2016,04,19,16,58,23.70
2016,04,19,16,59,23.80
2016,04,19,17,00,23.80
2016,04,19,17,01,23.80
2016,04,19,17,02,23.80
2016,04,19,17,03,23.80
2016,04,19,17,04,23.80
2016,04,19,17,05,23.80
2016,04,19,17,06,23.80
2016,04,19,17,07,23.80
2016,04,19,17,08,23.80
2016,04,19,17,09,23.70
2016,04,19,17,10,23.70
2016,04,19,17,11,23.70
2016,04,19,17,12,23.70
2016,04,19,17,13,23.70
2016,04,19,17,14,23.70
2016,04,19,17,15,23.70
2016,04,19,17,16,23.70
2016,04,19,17,17,23.70
2016,04,19,17,18,23.70
2016,04,19,17,19,23.70